Tracking 30918 objects as of 2-Jul-2025
HD Live streaming from Space Station
objects crossing your sky now

CENTISPACE-1 S6

Track CENTISPACE-1 S6 now!
10-day predictions


NORAD ID: 54021
Int'l Code: 2022-126B
Perigee: 685.0 km
Apogee: 706.0 km
Inclination: 55.0 °
Period: 98.5 minutes
Semi major axis: 7066 km
RCS: Unknown
Launch date: October 7, 2022
Source: People's Republic of China (PRC)
Launch site: Yellow Sea Launch Area, China (YSLA)
Your satellite tracking list
DMSP 5D-3 F16 (USA 172)
Track 1 satellite(s)




NASA's NSSDC Master Catalog

Two Line Element Set (TLE):
1 54021U 22126B   25182.93299797  .00000132  00000-0  63871-4 0  9993
2 54021  54.9974 173.9825 0014848  11.4638 348.6691 14.61503402145772
Source of the keplerian elements: AFSPC